Flag for U.S.A. Weather past 2 weeks in Santa Clara, California, U.S.A.

Now
70 °F

Partly sunny.


Feels Like: 74 °F
Forecast: 65 / 82 °F
Wind: 10 mph from Northwest

Location: San Jose International Airport

Current Time: Jul 2, 2015 at 8:03:06 PM

Latest Report: Jul 2, 2015 at 6:53 PM


Visibility: 10 mi

Pressure: 29.91 "Hg

Humidity: 68%

Dew point: 59 °F

Location of Santa ClaraLocation

Historic Weather in Santa Clara — Graph

°F

Santa Clara temperature yesterday

Maximum temperature yesterday: 85 °F (at 10:53 AM)
Minimum temperature yesterday: 63 °F (at 4:53 AM)
Average temperature yesterday: 73 °F

Past Weeks' High & Low Weather Summary

 TemperatureHumidityPressure
High92 °F (Jun 30, 3:53 PM)90% (Jun 21, 1:53 AM)30.06 "Hg (Jun 21, 1:53 AM)
Low54 °F (Jun 18, 5:53 AM)25% (Jun 30, 3:53 PM)29.78 "Hg (Jun 30, 5:53 PM)
Average68 °F64%29.94 "Hg
* Reported Jun 17 6:53 PM — Jul 2 6:53 PM, Santa Clara, Weather by CustomWeather, © 2015

Note: Actual official high and low records may vary slightly from our data, if they occured in-between our weather recording intervals... More about our weather records

Advertising

Santa Clara weather history for previous 24 hours

 ConditionsComfort  
Time TempWeatherWind HumidityBarometerVisibility
6:53 PM
Thu, Jul 2
70 °FPartly sunny.10 mph68%29.91 "Hg10 mi
5:53 PM73 °FBroken clouds.10 mph64%29.90 "Hg10 mi
4:53 PM76 °FPartly sunny.9 mph56%29.89 "Hg10 mi
3:53 PM76 °FBroken clouds.10 mph58%29.90 "Hg10 mi
2:53 PM78 °FBroken clouds.12 mph54%29.92 "Hg10 mi
1:53 PM78 °FBroken clouds.9 mph54%29.93 "Hg10 mi
12:53 PM78 °FBroken clouds.8 mph54%29.94 "Hg10 mi
11:53 AM77 °FBroken clouds.9 mph56%29.94 "Hg10 mi
10:53 AM75 °FBroken clouds.7 mph58%29.94 "Hg10 mi
9:53 AM72 °FBroken clouds.3 mph66%29.96 "Hg10 mi
8:53 AM67 °FBroken clouds.No wind76%29.96 "Hg10 mi
7:53 AM65 °FBroken clouds.No wind78%29.95 "Hg10 mi
6:53 AM64 °FBroken clouds.6 mph84%29.93 "Hg10 mi
5:53 AM65 °FMostly cloudy.8 mph87%29.91 "Hg10 mi
4:53 AM67 °FClear.7 mph81%29.89 "Hg10 mi
3:53 AM67 °FClear.6 mph81%29.90 "Hg10 mi
2:53 AM68 °FClear.5 mph76%29.89 "Hg10 mi
1:53 AM68 °FClear.6 mph76%29.90 "Hg10 mi
12:53 AM68 °FClear.No wind78%29.90 "Hg10 mi
11:53 PM
Wed, Jul 1
69 °FPassing clouds.7 mph73%29.89 "Hg10 mi
10:53 PM71 °FPassing clouds.6 mph68%29.91 "Hg10 mi
9:53 PM72 °FPartly cloudy.No wind64%29.89 "Hg10 mi
8:53 PM72 °FBroken clouds.No wind61%29.88 "Hg10 mi
Weather by CustomWeather, © 2015

See weather overviewHow to use our weather pages